This is the latest recevied weather packets stored in our database for station/object AA0RD-13. If no packets are shown the sender has not sent any weather packets the latest 10 day(s).
| Time | Temp. | Humidity | Pressure | Rain* | Wind** | Luminosity | Snow |
|---|---|---|---|---|---|---|---|
| 1777818799 | 15° C | 77% | 1015.4 hPa | 0 mm | - | - | - |
| 1777818511 | 14.44° C | 77% | 1015.4 hPa | 0 mm | - | - | - |
| 1777817602 | 13.89° C | 79% | 1015.2 hPa | 0 mm | - | - | - |
| 1777816412 | 14.44° C | 77% | 1015 hPa | 0 mm | - | - | - |
| 1777815195 | 13.89° C | 79% | 1015 hPa | 0 mm | - | - | - |
| 1777814618 | 13.33° C | 81% | 1014.8 hPa | 0 mm | - | - | - |
| 1777813694 | 12.22° C | 84% | 1014.7 hPa | 0 mm | - | - | - |
| 1777813097 | 11.67° C | 85% | 1014.8 hPa | 0 mm | - | - | - |
| 1777812809 | 11.67° C | 85% | 1014.7 hPa | 0 mm | - | - | - |
| 1777812499 | 11.67° C | 86% | 1014.7 hPa | 0 mm | - | - | - |
| 1777811923 | 11.67° C | 85% | 1014.7 hPa | 0 mm | - | - | - |
| 1777811019 | 11.67° C | 85% | 1014.8 hPa | 0 mm | - | - | - |
| 1777808903 | 12.22° C | 88% | 1014.8 hPa | 0 mm | - | - | - |
| 1777807111 | 12.22° C | 86% | 1014.7 hPa | 0 mm | - | - | - |
| 1777806802 | 12.22° C | 86% | 1014.7 hPa | 0 mm | - | - | - |
| 1777806494 | 12.22° C | 83% | 1014.7 hPa | 0 mm | - | - | - |
| 1777805900 | 12.78° C | 83% | 1014.7 hPa | 0 mm | - | - | - |
| 1777805611 | 13.33° C | 83% | 1014.8 hPa | 0 mm | - | - | - |
| 1777805013 | 12.78° C | 84% | 1014.6 hPa | 0 mm | - | - | - |
| 1777804107 | 12.78° C | 84% | 1014.7 hPa | 0 mm | - | - | - |
| 1777803205 | 12.78° C | 84% | 1014.7 hPa | 0 mm | - | - | - |
| 1777802610 | 12.78° C | 84% | 1014.7 hPa | 0 mm | - | - | - |
| 1777802011 | 12.78° C | 82% | 1014.7 hPa | 0 mm | - | - | - |
| 1777799935 | 13.33° C | 80% | 1014.6 hPa | 0 mm | - | - | - |
| 1777799317 | 13.33° C | 81% | 1014.6 hPa | 0 mm | - | - | - |
* Rain latest hour (hover to see other rain measurements)
** Current wind speed in m/s (hover to see current wind gust speed)